EW8655 Weather Reports


time (UTC)temp
C
wind
direction
speed
KPH
gust
KPH
rain 1hr
cm
rain 24hr
cm
rain mn
cm
humidity
%
barometer
mb
20260505040007 18 206 14.5 22.5 0.00 0.00 0.00 54 1000.1
20260505035506 18 206 14.5 19.3 0.00 0.00 0.00 53 1000.1
20260505035008 18 223 14.5 25.7 0.00 0.00 0.00 53 1000.1
20260505034506 18 213 19.3 25.7 0.00 0.00 0.00 52 1000.1
20260505034008 18 224 22.5 25.7 0.00 0.00 0.00 51 1000.1
20260505033507 18 218 22.5 32.2 0.00 0.00 0.00 51 1000.1
20260505033007 18 219 25.7 32.2 0.00 0.00 0.00 50 1000.1
20260505032506 18 224 20.9 32.2 0.00 0.00 0.00 50 1000.1
20260505032008 19 208 22.5 29.0 0.00 0.00 0.00 50 1000.1
20260505031506 17 235 9.7 14.5 0.00 0.00 0.00 51 1000.1
20260505031008 17 208 8.0 11.3 0.00 0.00 0.00 51 1000.1
20260505030507 17 197 8.0 14.5 0.00 0.00 0.00 50 1000.1
20260505030007 18 195 8.0 14.5 0.00 0.00 0.00 50 1000.1
20260505025007 18 201 8.0 11.3 0.00 0.00 0.00 49 1000.1
20260505024507 18 196 8.0 11.3 0.00 0.00 0.00 49 1000.1
20260505024008 18 205 8.0 11.3 0.00 0.00 0.00 49 1000.1
20260505023508 18 196 8.0 11.3 0.00 0.00 0.00 49 1000.1
20260505022506 18 186 9.7 11.3 0.00 0.00 0.00 48 1000.1
20260505022007 18 193 11.3 11.3 0.00 0.00 0.00 48 1000.1
20260505021507 18 180 11.3 11.3 0.00 0.00 0.00 48 1000.1
20260505021008 18 183 11.3 11.3 0.00 0.00 0.00 47 1000.1
20260505020507 18 191 11.3 11.3 0.00 0.00 0.00 47 1000.1
20260505020006 18 198 11.3 14.5 0.00 0.00 0.00 47 1000.1
20260505015008 19 187 11.3 11.3 0.00 0.00 0.00 46 1000.1
20260505014506 19 195 11.3 14.5 0.00 0.00 0.00 46 1000.1
20260505014007 19 211 11.3 14.5 0.00 0.00 0.00 46 1000.1
20260505013507 19 228 11.3 14.5 0.00 0.00 0.00 46 1000.1
20260505013008 19 238 11.3 14.5 0.00 0.00 0.00 46 1000.1
20260505012007 20 229 11.3 14.5 0.00 0.00 0.00 45 1000.1
20260505011506 20 230 14.5 14.5 0.00 0.00 0.00 45 1000.1
20260505011007 20 225 14.5 14.5 0.00 0.00 0.00 44 1000.1
20260505010507 20 231 11.3 14.5 0.00 0.00 0.00 44 1000.1
20260505010006 20 222 11.3 14.5 0.00 0.00 0.00 44 1000.1
20260505005507 20 234 11.3 14.5 0.00 0.00 0.00 44 1000.1
20260505004507 20 231 14.5 19.3 0.00 0.00 0.00 44 1000.1
20260505003507 20 228 14.5 22.5 0.00 0.00 0.00 43 1000.1
20260505003008 21 237 14.5 19.3 0.00 0.00 0.00 43 1000.1
20260505002507 21 226 14.5 19.3 0.00 0.00 0.00 42 1000.1
20260505002008 21 235 14.5 19.3 0.00 0.00 0.00 42 1000.1
20260505001506 21 231 14.5 14.5 0.00 0.00 0.00 42 1000.1
20260505001008 21 225 11.3 14.5 0.00 0.00 0.00 42 1000.1
20260505000507 21 227 11.3 14.5 0.00 0.00 0.00 42 1000.1
20260505000006 21 231 11.3 14.5 0.00 0.00 0.00 42 1000.1
20260504235507 21 243 11.3 14.5 0.00 0.00 0.00 42 1000.1
20260504235007 21 248 11.3 14.5 0.00 0.00 0.00 42 1000.1
20260504234507 21 236 11.3 14.5 0.00 0.00 0.00 42 1000.1
20260504234008 21 243 11.3 14.5 0.00 0.00 0.00 42 1000.1
20260504233507 21 249 14.5 22.5 0.00 0.00 0.00 42 1000.1
20260504233007 21 254 14.5 22.5 0.00 0.00 0.00 42 1000.1
20260504232506 22 259 19.3 22.5 0.00 0.00 0.00 41 999.7
20260504232007 22 261 19.3 25.7 0.00 0.00 0.00 41 1000.1
20260504231506 22 261 20.9 29.0 0.00 0.00 0.00 41 999.7
20260504231007 22 266 22.5 29.0 0.00 0.00 0.00 41 999.1
20260504230507 22 252 20.9 25.7 0.00 0.00 0.00 41 999.1
20260504225508 22 255 20.9 25.7 0.00 0.00 0.00 41 999.1
20260504225007 22 254 19.3 25.7 0.00 0.00 0.00 41 999.1
20260504224506 22 260 19.3 25.7 0.00 0.00 0.00 40 999.1
20260504224008 22 256 20.9 29.0 0.00 0.00 0.00 40 999.1
20260504223507 22 240 22.5 32.2 0.00 0.00 0.00 40 999.1
20260504223007 22 257 22.5 32.2 0.00 0.00 0.00 40 999.1
20260504222506 22 248 24.1 29.0 0.00 0.00 0.00 41 999.1
20260504222007 22 263 25.7 29.0 0.00 0.00 0.00 40 999.1
20260504221007 22 255 22.5 35.4 0.00 0.00 0.00 41 999.1
20260504220507 22 257 27.4 35.4 0.00 0.00 0.00 40 999.1
20260504220006 23 258 25.7 32.2 0.00 0.00 0.00 40 999.1
20260504215507 23 254 27.4 32.2 0.00 0.00 0.00 40 999.1
20260504215007 23 253 25.7 32.2 0.00 0.00 0.00 41 998.6
20260504214007 22 243 29.0 49.9 0.00 0.00 0.00 41 999.1
20260504213008 23 242 27.4 38.6 0.00 0.00 0.00 41 999.1
20260504212506 23 261 29.0 38.6 0.00 0.00 0.00 41 999.1
20260504212007 23 239 29.0 41.8 0.00 0.00 0.00 41 999.1
20260504211506 23 256 33.8 41.8 0.00 0.00 0.00 41 999.1
20260504211007 23 265 29.0 41.8 0.00 0.00 0.00 42 999.1
20260504210506 23 241 32.2 41.8 0.00 0.00 0.00 41 999.1
20260504210006 23 242 30.6 38.6 0.00 0.00 0.00 42 999.1
20260504205007 23 243 35.4 41.8 0.00 0.00 0.00 42 999.1
20260504204007 22 249 35.4 49.9 0.00 0.00 0.00 42 999.3
20260504203507 22 240 35.4 49.9 0.00 0.00 0.00 43 1000.1
20260504202506 22 235 35.4 49.9 0.00 0.00 0.00 43 999.1
20260504202007 22 243 35.4 41.8 0.00 0.00 0.00 43 1000.1
20260504201506 22 241 35.4 49.9 0.00 0.00 0.00 44 1000.1
20260504201007 22 253 35.4 49.9 0.00 0.00 0.00 44 999.9
20260504200506 22 248 29.0 49.9 0.00 0.00 0.00 44 1000.1
20260504200006 22 253 25.7 38.6 0.00 0.00 0.00 44 1000.1
20260504195505 22 248 30.6 46.7 0.00 0.00 0.00 44 1000.1
20260504195007 22 232 30.6 46.7 0.00 0.00 0.00 44 1000.1
20260504194506 22 230 25.7 35.4 0.00 0.00 0.00 45 1000.1
20260504194007 22 245 22.5 35.4 0.00 0.00 0.00 45 1000.1
20260504193506 22 252 25.7 35.4 0.00 0.00 0.00 45 1000.1
20260504193007 22 236 29.0 41.8 0.00 0.00 0.00 45 1000.6
20260504192506 21 235 33.8 41.8 0.00 0.00 0.00 45 1000.9
20260504192007 21 239 35.4 41.8 0.00 0.00 0.00 45 1000.8
20260504191505 21 236 32.2 41.8 0.00 0.00 0.00 46 1000.6
20260504191007 21 236 35.4 41.8 0.00 0.00 0.00 46 1001.1
20260504190507 21 252 32.2 41.8 0.00 0.00 0.00 47 1000.3
20260504190006 21 244 35.4 49.9 0.00 0.00 0.00 47 1001.1
20260504184007 21 254 32.2 38.6 0.00 0.00 0.00 49 1001.1
20260504183506 21 252 32.2 41.8 0.00 0.00 0.00 49 1001.1
20260504183007 21 237 35.4 41.8 0.00 0.00 0.00 49 1001.1
20260504182505 20 234 35.4 41.8 0.00 0.00 0.00 49 1001.1
20260504182007 20 262 32.2 41.8 0.00 0.00 0.00 49 1001.1
20260504181506 21 242 32.2 46.7 0.00 0.00 0.00 50 1001.1
20260504181007 20 240 35.4 46.7 0.00 0.00 0.00 49 1001.1
20260504180506 20 258 29.0 41.8 0.00 0.00 0.00 50 1001.1
20260504180006 20 242 35.4 46.7 0.00 0.00 0.00 50 1001.5
20260504175506 20 231 35.4 46.7 0.00 0.00 0.00 50 1001.1
20260504175007 20 242 35.4 41.8 0.00 0.00 0.00 51 1001.2
20260504174507 20 260 30.6 38.6 0.00 0.00 0.00 51 1001.7
20260504174007 20 252 29.0 35.4 0.00 0.00 0.00 51 1002.1
20260504173506 20 245 29.0 35.4 0.00 0.00 0.00 51 1002.1
20260504173007 20 243 29.0 38.6 0.00 0.00 0.00 51 1002.1
20260504172506 20 225 32.2 41.8 0.00 0.00 0.00 51 1002.1
20260504172007 20 253 32.2 41.8 0.00 0.00 0.00 51 1002.1
20260504171506 20 234 32.2 41.8 0.00 0.00 0.00 51 1002.1
20260504171007 19 241 30.6 41.8 0.00 0.00 0.00 51 1002.1
20260504170506 20 221 25.7 41.8 0.00 0.00 0.00 52 1002.1
20260504151006 17 231 29.0 38.6 0.00 0.00 0.00 54 1003.1
20260504150506 17 235 29.0 38.6 0.00 0.00 0.00 54 1003.1
20260504141006 16 245 33.8 46.7 0.00 0.00 0.00 55 1003.1
20260504140505 16 247 32.2 41.8 0.00 0.00 0.00 55 1003.1
20260504130506 15 244 25.7 38.6 0.00 0.00 0.00 57 1004.1
20260504110508 11 202 14.5 19.3 0.00 0.00 0.00 60 1005.1
20260504100507 12 213 22.5 29.0 0.00 0.00 0.00 57 1004.8
20260504082008 11 220 22.5 29.0 0.00 0.00 0.00 60 1005.7
20260504081508 11 227 22.5 29.0 0.00 0.00 0.00 60 1006.1
20260504081007 11 227 22.5 25.7 0.00 0.00 0.00 60 1006.1
20260504080507 11 232 22.5 25.7 0.00 0.00 0.00 60 1006.1
20260504050507 12 232 25.7 35.4 0.00 0.00 0.00 58 1006.1
20260504050007 12 240 25.7 35.4 0.00 0.00 0.00 58 1006.1
20260504045008 12 240 22.5 32.2 0.00 0.00 0.00 58 1006.1
20260504044007 12 235 24.1 32.2 0.00 0.00 0.00 58 1007.1
20260504043508 12 238 25.7 32.2 0.00 0.00 0.00 58 1006.1
20260504043008 12 237 22.5 35.4 0.00 0.00 0.00 58 1006.1
20260504042507 13 224 25.7 35.4 0.00 0.00 0.00 58 1006.1
20260504042008 12 247 25.7 35.4 0.00 0.00 0.00 58 1006.1
20260504041507 12 225 24.1 29.0 0.00 0.00 0.00 59 1006.1
20260504041007 13 239 25.7 29.0 0.00 0.00 0.00 59 1006.2
20260504040508 13 237 25.7 29.0 0.00 0.00 0.00 59 1006.1